Preview of NWS' New Version of Forecast
This preview is not operational and should not be used for support decisions.

Regional Weather Roundup (RWR)

Issued by National Weather Service (NWS)

                            
000
ASUS44 KMEG 161310
RWRTN 
TENNESSEE HOURLY STATE WEATHER ROUNDUP
NATIONAL WEATHER SERVICE MEMPHIS TN
800 AM CDT MON SEP 16 2019

TNZ002-004-019-021-049-052-054-088>092-161400-
WEST TENNESSEE
  
CITY           SKY/WX    TMP DP  RH WIND       PRES   REMARKS
MEMPHIS INTL   FAIR      81  72  74 CALM      30.11R                  
NWS MEMPHIS      N/A     72 N/A N/A MISG        N/A                   
JACKSON        FAIR      72  69  90 CALM      30.13R                  
DYERSBURG      FAIR      73  71  93 CALM      30.13R                  
SOMERVILLE     SUNNY     72  68  88 CALM      30.11R                  
COVINGTON      SUNNY     72  70  94 CALM      30.11S                  
UNION CITY     SUNNY     72  70  94 CALM      30.11R                  
BOLIVAR        SUNNY     72  68  88 CALM      30.12R                  
PARIS          SUNNY     73  68  83 CALM      30.12R                  
LEXINGTON      SUNNY     70  70 100 CALM      30.12R                  
SELMER         SUNNY     75  70  83 CALM      30.12R                  
SAVANNAH       SUNNY     70  68  94 CALM      30.11S                  
$$

TNZ008-025-027-028-033-062-065-066-161400-
NORTH MIDDLE TENNESSEE
  
CITY           SKY/WX    TMP DP  RH WIND       PRES   REMARKS
NASHVILLE      FAIR      78  68  71 CALM      30.14R                  
DICKSON        SUNNY     75  68  78 CALM      30.13S                  
PORTLAND       SUNNY     73  70  88 S3        30.13S                  
CLARKSVILLE    FAIR      70  68  93 CALM      30.13R                  
LEBANON        SUNNY     72  66  83 CALM      30.12R                  
SMYRNA         FAIR      72  68  87 CALM      30.15R                  
MURFREESBORO   SUNNY     73  66  78 CALM      30.12R                  
COOKEVILLE     SUNNY     68  64  88 CALM      30.15R                  
LIVINGSTON     SUNNY     77  63  61 CALM      30.16R                  
CROSSVILLE     FAIR      69  62  78 CALM      30.20R                  
ROCKWOOD       SUNNY     70  57  64 CALM      30.18R                  
$$

TNZ061-075-076-078-094-096-097-161400-
SOUTH MIDDLE TENNESSEE
  
CITY           SKY/WX    TMP DP  RH WIND       PRES   REMARKS
LAWRENCEBURG   SUNNY     72  66  83 CALM      30.13S                  
LEWISBURG      SUNNY     70  66  88 CALM      30.13R                  
FAYETTEVILLE   SUNNY     75  70  83 CALM      30.13S                  
TULLAHOMA      SUNNY     72  66  83 CALM      30.14S                  
WINCHESTER     SUNNY     68  63  83 CALM      30.14S                  
MCMINNVILLE    SUNNY     68  64  88 CALM      30.15S                  
COLUMBIA       SUNNY     70  70 100 CALM      30.12R                  
SHELBYVILLE    SUNNY     72  66  83 E5        30.13S                  
$$

TNZ017-018-042-046-047-161400-
NORTHEAST TENNESSEE
  
CITY           SKY/WX    TMP DP  RH WIND       PRES   REMARKS
TRI CITIES     FAIR      63  56  78 E3        30.20R                  
ELIZABETHTON   FAIR      66  57  72 CALM      30.19S                  
GREENEVILLE    MOSUNNY   70  59  68 CALM      30.19R                  
$$

TNZ012-013-036-069-073-074-161400-
CENTRAL EAST TENNESSEE
  
CITY           SKY/WX    TMP DP  RH WIND       PRES   REMARKS
KNOXVILLE      FAIR      67  59  75 NE3       30.15R                  
OAK RIDGE      FAIR      66  60  81 CALM      30.18R                  
DOWNTOWN KNOXV   N/A     66  64  94 CALM      30.16S                  
GATLINBURG     SUNNY     66  55  68 E3        30.16S                  
MORRISTOWN     SUNNY     70  57  64 CALM      30.17R                  
JACKSBORO      SUNNY     64  59  82 CALM      30.20S                  
$$

TNZ083-085-099-161400-
SOUTHEAST TENNESSEE
  
CITY           SKY/WX    TMP DP  RH WIND       PRES   REMARKS
CHATTANOOGA    FAIR      72  64  76 NW3       30.14S                  
DAYTON         SUNNY     68  64  88 CALM      30.14S                  
$$

SKY/WX REPORTED AS FAIR MEANS FEW OR NO CLOUDS BELOW
12 THOUSAND FEET.